Location: Fontevrault
(47.1823°N, 0.0493°E)
Time: 04:34:45
(UTC+00:00)

Cosmos 1459 Rocket - Pass Details

Date: 21 October 2021
Orbit: 936 x 1000 km, 83.0° (Epoch: 01 December)

Event Time Altitude Azimuth Distance (km) Brightness Sun altitude
Exits shadow 20:46:39 35° 330° (NNW) 1,518 5.3 -38.1°
Drops below altitude 10° 20:50:33 10° 358° (N) 2,690 6.6 -38.6°
Sets 20:53:10 0° 5° (N) 3,632 7.3 -39.0°
